Flag for Germany Past Weather in Neustadt am Rübenberge, Lower Saxony, Germany — Yesterday and Last 2 Weeks

Now
59 °F

Cool.


Feels Like: 59 °F
Forecast: 53 / 76 °F
Wind: 2 mph from West

Location: Wunstorf Airport

Current Time: Sep 1, 2016 at 3:55:52 AM

Latest Report: Sep 1, 2016 at 3:20 AM


Visibility: 6 mi

Pressure: 30.09 "Hg

Humidity: 77%

Dew Point: 52 °F

Location of Neustadt am RübenbergeLocation

Past Weather in Neustadt am Rübenberge — Graph

°F

Neustadt am Rübenberge Temperature Yesterday

Maximum temperature yesterday: 81 °F (at 2:20 PM)
Minimum temperature yesterday: 50 °F (at 5:20 AM)
Average temperature yesterday: 66 °F

High & Low Weather Summary for the Past Weeks

 TemperatureHumidityPressure
High95 °F (Aug 28, 3:20 PM)94% (Aug 17, 5:20 AM)30.33 "Hg (Aug 17, 5:20 AM)
Low46 °F (Aug 18, 5:20 AM)24% (Aug 25, 5:20 PM)29.80 "Hg (Aug 18, 3:20 PM)
Average69 °F65%30.05 "Hg
* Reported Aug 17 2:20 AM — Sep 1 2:20 AM, Neustadt am Rübenberge, Weather by CustomWeather, © 2016

Note: Actual official high and low records may vary slightly from our data, if they occured in-between our weather recording intervals... More about our weather records

Advertising

Neustadt am Rübenberge Weather History for the Previous 24 Hours

Scroll right to see more
 ConditionsComfort  
Time TempWeatherWind HumidityBarometerVisibility
2:20 AM
Thu, Sep 1
61 °FCool.No wind72%30.12 "Hg6 mi
1:20 AM63 °FMild.5 mph68%30.12 "HgN/A
12:20 AM64 °FMild.1 mph64%30.09 "Hg4 mi
11:20 PM
Wed, Aug 31
66 °FMild.3 mph64%30.09 "Hg4 mi
10:20 PM66 °FMild.3 mph64%30.09 "Hg4 mi
9:20 PM70 °FMild.3 mph53%30.09 "Hg4 mi
8:20 PM73 °FMild.9 mph50%30.07 "Hg6 mi
7:20 PM77 °FScattered clouds.2 mph42%30.07 "HgN/A
6:20 PM81 °FScattered clouds.6 mph34%30.07 "HgN/A
5:20 PM81 °FScattered clouds.8 mph34%30.07 "HgN/A
4:20 PM81 °FPassing clouds.5 mph30%30.09 "HgN/A
3:20 PM81 °FPassing clouds.5 mph32%30.09 "HgN/A
2:20 PM81 °FPassing clouds.8 mph30%30.12 "HgN/A
1:20 PM79 °FPassing clouds.7 mph32%30.12 "HgN/A
12:20 PM75 °FPassing clouds.8 mph39%30.15 "HgN/A
11:20 AM73 °FPassing clouds.9 mph38%30.15 "HgN/A
10:20 AM68 °FPassing clouds.8 mph46%30.18 "HgN/A
9:20 AM64 °FPassing clouds.8 mph60%30.18 "HgN/A
8:20 AM57 °FPassing clouds.2 mph77%30.18 "HgN/A
7:20 AM52 °FPassing clouds.2 mph88%30.21 "HgN/A
6:20 AM50 °FFog.1 mph94%30.21 "HgN/A
5:20 AM50 °FFog.2 mph94%30.21 "HgN/A
4:20 AM52 °FCool.2 mph88%30.21 "Hg6 mi
3:20 AM52 °FCool.2 mph88%30.21 "Hg6 mi
Weather by CustomWeather, © 2016

See weather overviewHow to use our weather pages